Torna al catalogo

STARLINK-36313

AttivoComunicazioniSSO
NORAD 68156·PAYLOAD·🇺🇸 United States

Lanciato Mar 13, 2026 da Vandenberg Space Force Base

Loading…

Prossimi Passaggi (prossime 24 ore)

TLE

AggiornatoSource: CelesTrak SupGP

Epoca: Sep 15, 2026, 03:30 UTC

1 68156C 26049Q   26258.14631944 -.00059344  00000+0 -18425-2 0  2588
2 68156  97.2839 278.1231 0001452  88.3408  27.0816 15.33464102    17

Traccia STARLINK-36313 in tempo reale con AllMySat

Download on the App Store